Location:  
MeteoStar


Sort by weather type Sort by elevation Sort by visibility Sort from west to east north Sort from north to south Alphabetically Sort from strongest wind speed Sort from lowest to highest pressure Sort from highest to lowest dew point temperature Sort coolest temperatures to warmest Sort warm temperatures to coolest
 Metric

Current Observations for United Kingdom sorted from warmest to coolest

Northolt15:21ZNot Avail.75 50251010.1W 12 75124
London / Heathrow Airport15:20ZClear73 50351010.1W 10 7378
London City Airport15:20ZClear73 55191010.1WSW 10 7316
Thorney Island16:00ZNot Avail.72 51251011.5W 12 7213
Wittering15:18ZMostly Cloudy72 48351009.0W 14 72275
Brize Norton15:20ZMostly Cloudy72 50251010.0WNW 8 72288
Fairford Royal Air Force Base15:20ZMostly Cloudy72 50301010.0W 12 72285
Wattisham15:20ZPartly Cloudy72 55301009.0WNW 10 72285
Benson15:20ZNot Avail.72 48251010.1W 11 72206
Exeter Airport15:20ZPartly Cloudy72 52251012.1WSW 10 7298
Cranfield15:20ZClear72 50251010.0WNW 8 72364
Cambridge15:20ZPartly Cloudy72 50251009.1W 10 7249
Bournemouth Airport15:20ZPartly Cloudy72 48451012.1WNW 12 7236
Luton Airport 15:20ZMostly Cloudy72 48201010.0WNW 11 72524
Larkhill16:00ZMostly Cloudy71 49201011.2W 10 71433
Shoeburyness16:00ZNot Avail.71 54301010WSW 11 716
Manston16:00ZNot Avail.71 55251010.4W 13 71180
Bedford16:00ZNot Avail.70 48251009.7WNW 13 70278
Pershore16:00ZNot Avail.70 52251010.7W 7 70104
Donna Nook16:00ZNot Avail.70 48161008.5W 12 7026
Bridlington Mrsc16:00ZNot Avail.70 50301007.5W 13 7049
Marham15:20ZPartly Cloudy70 54121009.1W 9 7075
Coningsby Royal Air Force Base15:25ZNot Avail.70 48251008.1WNW 12 7022
Middle Wallop15:23ZMostly Cloudy70 52251011.0W 9 70298
Odiham15:20ZMostly Cloudy70 50201011.0W 13 70403
Stansted Airport15:20ZMostly Cloudy70 52251010.0NW 6 70347
Norwich Weather Centre15:20ZPartly Cloudy70 57251009.1NW 5 7045
Humberside15:20ZPartly Cloudy70 50351008.1W 12 70101
Southend-On-Sea 15:20ZClear70 54351010.1WSW 12 7049
Farnborough15:20ZClear70 52351010.1W 8 Gusting to 18 70213
London / Gatwick Airport15:20ZClear70 54191011.1W 10 70203
Southampton / Weather Centre15:20ZPartly Cloudy70 48451011.1W 9 7029
Liverpool Airport 15:20ZPartly Cloudy70 54201009.1W 13 7085
Yeovilton15:20ZPartly Cloudy70 50201012.1NW 9 7075
Boscombe Down15:20ZPartly Cloudy70 50201011.0W 14 70406
Staverton Private 15:20ZClear70 54201010.1SW 8 7095
Kenley16:00ZNot Avail.69 55301010.7W 9 69557
Church Lawford16:00ZNot Avail.69 50201009.9W 11 69351
Shobdon16:00ZNot Avail.69 51301010.5WNW 8 69324
Wainfleet16:00ZNot Avail.69 51201008.7WNW 11 699
Holbeach16:00ZNot Avail.69 51251009.0WNW 10 699
Plymouth16:00ZNot Avail.69 5271013.4W 14 69164
High Wicombe Hqstc16:00ZNot Avail.68 52201010.4WNW 5 68669
Crosby16:00ZNot Avail.68 54301009.5W 15 6826
Cranwell15:20ZNot Avail.68 48251009.1W 11 68219
Waddington15:50ZMostly Cloudy68 46201009.1W 11 68223
Leeming15:20ZPartly Cloudy68 50251007.1WSW 14 68131
Shawbury15:20ZClear68 54251010.1WSW 16 68249
Tees-Side15:20ZPartly Cloudy68 50301007.1WSW 15 68121
Newcastle 15:20ZClear68 50301006.1WSW 13 68265
Hawarden15:20ZPartly Cloudy68 54201010.1W 13 6832
Blackpool Airport15:20ZClear68 54351009.1W 16 6832
Lydd Airport 15:20ZClear68 63351011.1WSW 18 689
Biggin Hill 15:20ZClear68 54191011.0WSW 9 68600
Shoreham Airport15:20ZPartly Cloudy68 59191011.1SW 18 686
Jersey Airport15:20ZClear68 61191014.1WNW 11 68275
Bristol / Lulsgate 15:20ZClear68 52201012.0WSW 13 68620
Lyneham16:00ZNot Avail.68 51201011.0WSW 10 68475
Birmingham / Airport15:20ZClear68 48201010.0W 11 68324
Herstmonceux16:00ZNot Avail.67 57201011.2WSW 9 67170
Nottingham Weather Centre16:00ZNot Avail.67 49251009.5W 8 67383
Chivenor16:00ZNot Avail.67 54201013.0W 10 6726
Dunkeswell Aerodrome16:00ZNot Avail.66 51251012.4WNW 6 66826
Liscombe16:00ZNot Avail.66 53201012.2W 8 661141
Milford Haven16:00ZNot Avail.66 55301012.2WSW 9 66144
Trawscoed16:00ZNot Avail.66 54161011.2W 9 66206
Weybourne16:00ZNot Avail.66 58201009.0ENE 4 6668
Linton-On-Ouse15:26ZMostly Cloudy66 52201008.1W 13 6652
Boulmer15:50ZMostly Cloudy66 52201005.1WSW 13 6675
Leuchars15:50ZMostly Cloudy66 55171003.1W 15 6639
Dundee / Riverside15:20ZClear66 5561003.1W 18 6613
Aberdeen / Dyce15:20ZShowers nearby66 5761001.1S 10 66213
Pembrey Sands16:00ZNot Avail.66 58171012.2SW 21 Gusting to 25 669
East Midlands15:20ZMostly Cloudy66 52301009.1W 14 66308
Scilly; Saint MaryS15:20ZClear66 57201014.1W 10 66101
Cardiff-Wales Airport15:20ZClear66 54201012.1W 15 66219
Eglinton / Londonderr15:20ZShowers nearby66 54201006.1W 18 6629
Belfast / Harbour15:20ZClear66 55201007.1WSW 11 6616
Camborne16:00ZCloudy65 54201014.0WNW 10 65285
Little Rissington16:00ZNot Avail.65 51401010.2WNW 8 65705
Mumbles16:00ZNot Avail.65 56301012.7WSW 19 65114
Inverbervie16:00ZNot Avail.65 58131002.2SW 13 65439
Aberporth16:00ZNot Avail.65 53301011.2W 15 65436
Cardinham16:00ZNot Avail.64 54251013.4W 11 64656
Langdon Bay16:00ZNot Avail.64 61301010.7WSW 10 Gusting to 25 64383
Bingley16:00ZNot Avail.64 51251008.4WSW 8 Gusting to 18 64859
Loftus Samos16:00ZNot Avail.64 50301006.9WSW 15 64190
Carlisle16:00ZNot Avail.64 53301007N 6491
Lossiemouth15:20ZShowers nearby64 54251001.1W 10 6442
Edinburgh Airport15:20ZPartly Cloudy64 5261004.1WSW 15 64134
Valley15:21ZClear64 57201009.1SSW 16 643
Isle Of Man / Ronaldsway Airport15:20ZClear64 55301008.1SW 12 6455
Leeds And Bradford15:20ZPartly Cloudy64 48251008.0W 18 64682
Walney Island16:00ZNot Avail.64 54251008.5SW 12 6449
Guernsey Airport15:20ZPartly Cloudy64 57201014.1WSW 12 64334
Alderney / Channel Island15:20ZClear64 59451014.1W 11 64232
Culdrose15:20ZMostly Cloudy64 55151014.1WSW 7 64255
Castlederg16:00ZClear63 54251006.7W 10 63167
Fylingdales16:00ZNot Avail.63 4930SW 14 63859
Redesdale16:00ZNot Avail.63 51301006.2WSW 11 Gusting to 21 63692
Shap16:00ZNot Avail.63 5141007.7SW 12 63816
Prestwick Airport15:20ZPartly Cloudy63 5561006.1SSW 13 6365
Glasgow Airport15:20ZClear63 5761005.1WSW 13 6326
Inverness / Dalcross15:20ZShowers nearby63 5561001.1SW 16 6329
Carlisle15:20ZPartly Cloudy63 52351007.1WSW 19 Gusting to 30 6385
Manchester Airport15:20ZShowers63 55201009.1SSW 6 63226
Sennybridge16:00ZNot Avail.62 50251011.2W 4 Gusting to 14 621007
Prestwick Rnas16:00ZNot Avail.62 55251006.0SW 17 6285
Kinloss16:00ZLight Showers62 5351001.0WSW 12 6222
Tain Range16:00ZNot Avail.62 51301001WSW 13 6213
Lough Fea16:00ZNot Avail.61 54201007W 14 61738
Aberdaron16:00ZNot Avail.61 54201011.0SW 20 Gusting to 29 61311
Charterhall16:00ZClear61 56301004.9SSW 14 61367
Machrihanish16:00ZNot Avail.61 55111006.2W 10 6142
Tiree15:20ZPartly Cloudy61 55451003.1WSW 19 6139
Scatsa / Shetland Island15:20ZClear61 5461001.1WSW 8 6172
Benbecula15:20ZPartly Cloudy61 5561001.1W 14 6119
Belfast / Aldergrove Airport15:20ZPartly Cloudy61 54201007.1W 11 61265
Capel Curig16:00ZNot Avail.60 52401010.2SW 18 60708
Spadeadam16:00ZNot Avail.60 51201006.5WSW 17 Gusting to 29 60935
Keswick16:00ZShowers60 5251008.2SW 7 60265
Drumalbin16:00ZNot Avail.60 50251005.5W 16 Gusting to 27 60803
Portglenone16:00ZShowers59 552.51006.7W 7 Gusting to 18 59209
Lake Vyrnwy16:00ZNot Avail.59 512.751010.4S 14 591181
Saint Bees Head16:00ZNot Avail.59 56151008.2WSW 12 59406
Stornoway15:20ZShowers nearby59 54451000.1W 10 5929
Wick15:20ZShowers nearby59 5571001.1SSE 7 59127
Sumburgh Cape 15:20ZClear59 54251001.1S 4 5916
West Freugh16:00ZLight Showers59 5591007.5WNW 7 5936
Ballypatrick Forest16:00ZShowers58 5451006.7NNW 5 58511
Aultbea16:00ZLight Showers58 54121001.5SW 10 5836
Dundrennan16:00ZNot Avail.57 54251007.0WSW 14 57374
Aviemore16:00ZLight Showers57 54251002.4SSW 4 57721
Baltasound16:00ZNot Avail.57 53201001.2ESE 3 5749
Tulloch Bridge16:00ZLight Showers56 53121003.9WNW 2 56777
Kirkwall Airport15:20ZLight Showers55 54251001.1SSW 8 5568
Glen Ogle16:00ZNot Avail.51 4625W 23 Gusting to 33 441850
Cairnwell16:00ZNot Avail.48 4425W 28 Gusting to 37 403061
Cairngorm16:00ZNot Avail.44 4325WSW 29 Gusting to 43 344084
Aonach Mor16:00ZNot Avail.43 4312SW 20 Gusting to 45 343707

Atlantic
Tropical Watch